This is the latest recevied weather packets stored in our database for station/object YO6LRV-6. If no packets are shown the sender has not sent any weather packets the latest 10 day(s).
| Time | Temp. | Humidity | Pressure | Rain* | Wind** | Luminosity | Snow |
|---|---|---|---|---|---|---|---|
| 1777783954 | 7.78° C | 58% | 1040.3 hPa | - | - | - | - |
| 1777783054 | 6.67° C | 60% | 1040.3 hPa | - | - | - | - |
| 1777782153 | 6.11° C | 62% | 1040.2 hPa | - | - | - | - |
| 1777781253 | 5.56° C | 61% | 1040.1 hPa | - | - | - | - |
| 1777780353 | 5° C | 63% | 1040.1 hPa | - | - | - | - |
| 1777779453 | 3.89° C | 67% | 1040 hPa | - | - | - | - |
| 1777778553 | 3.33° C | 71% | 1040 hPa | - | - | - | - |
| 1777777653 | 2.22° C | 74% | 1039.9 hPa | - | - | - | - |
| 1777776753 | 2.22° C | 73% | 1039.9 hPa | - | - | - | - |
| 1777775853 | 2.22° C | 72% | 1040 hPa | - | - | - | - |
| 1777774952 | 2.22° C | 70% | 1040 hPa | - | - | - | - |
| 1777774052 | 2.78° C | 70% | 1039.7 hPa | - | - | - | - |
| 1777773152 | 2.78° C | 70% | 1039.7 hPa | - | - | - | - |
| 1777772252 | 2.78° C | 70% | 1039.8 hPa | - | - | - | - |
| 1777770452 | 2.78° C | 69% | 1039.8 hPa | - | - | - | - |
| 1777769552 | 2.78° C | 69% | 1039.8 hPa | - | - | - | - |
| 1777768652 | 2.78° C | 71% | 1039.8 hPa | - | - | - | - |
| 1777767754 | 2.78° C | 70% | 1039.9 hPa | - | - | - | - |
| 1777766854 | 2.78° C | 68% | 1039.9 hPa | - | - | - | - |
| 1777764153 | 3.33° C | 71% | 1040 hPa | - | - | - | - |
| 1777760553 | 3.89° C | 67% | 1040.2 hPa | - | - | - | - |
| 1777759653 | 4.44° C | 65% | 1040.2 hPa | - | - | - | - |
| 1777754252 | 5.56° C | 59% | 1039.9 hPa | - | - | - | - |
| 1777741653 | 11.11° C | 43% | 1038 hPa | - | - | - | - |
| 1777738052 | 12.78° C | 33% | 1038 hPa | - | - | - | - |
* Rain since midnight (hover to see other rain measurements)
** Current wind speed in m/s (hover to see current wind gust speed)